Location: Iesi
(43.5167°N, 13.2333°E)
Time: 03:35:32
(UTC+00:00)

Cosmos 1633 Rocket - Pass Details

Date: 08 August 2020
Orbit: 606 x 624 km, 82.5° (Epoch: 27 September)

Event Time Altitude Azimuth Distance (km) Brightness Sun altitude
Exits shadow 19:17:59 13° 136° (SE) 1,802 4.8 -10.1°
Maximum altitude 19:20:54 24° 88° (E) 1,307 4.3 -10.5°
Drops below altitude 10° 19:24:27 10° 35° (NE) 2,003 5.7 -11.0°
Sets 19:27:00 0° 22° (NNE) 2,914 6.7 -11.4°
